This is the latest recevied weather packets stored in our database for station/object E22ZMG-4. If no packets are shown the sender has not sent any weather packets the latest 10 day(s).
| Time | Temp. | Humidity | Pressure | Rain* | Wind** | Luminosity | Snow |
|---|---|---|---|---|---|---|---|
| 1777955167 | 31.11° C | 55% | 979 hPa | - | - | 0 W/m² | - |
| 1777954541 | 31.11° C | 55% | 979 hPa | - | - | 0 W/m² | - |
| 1777953917 | 31.11° C | 56% | 979 hPa | - | - | 0 W/m² | - |
| 1777953293 | 30.56° C | 50% | 979 hPa | - | - | 0 W/m² | - |
| 1777952669 | 30.56° C | 44% | 979 hPa | - | - | 0 W/m² | - |
| 1777952044 | 30.56° C | 44% | 979 hPa | - | - | 0 W/m² | - |
| 1777951420 | 30° C | 44% | 979 hPa | - | - | 0 W/m² | - |
| 1777950796 | 30° C | 43% | 979 hPa | - | - | 0 W/m² | - |
| 1777950172 | 29.44° C | 43% | 979 hPa | - | - | 0 W/m² | - |
| 1777949552 | 29.44° C | 42% | 979 hPa | - | - | 0 W/m² | - |
| 1777948924 | 28.89° C | 42% | 979 hPa | - | - | 0 W/m² | - |
| 1777948299 | 28.33° C | 41% | 980 hPa | - | - | 0 W/m² | - |
| 1777947675 | 27.78° C | 41% | 979 hPa | - | - | 0 W/m² | - |
| 1777947050 | 26.11° C | 43% | 979 hPa | - | - | 0 W/m² | - |
| 1777946426 | 26.11° C | 47% | 979 hPa | - | - | 0 W/m² | - |
| 1777945801 | 26.67° C | 46% | 979 hPa | - | - | 0 W/m² | - |
| 1777945177 | 26.67° C | 43% | 979 hPa | - | - | 0 W/m² | - |
| 1777944553 | 26.67° C | 45% | 979 hPa | - | - | 0 W/m² | - |
| 1777943929 | 26.67° C | 46% | 979 hPa | - | - | 0 W/m² | - |
| 1777943305 | 26.67° C | 47% | 979 hPa | - | - | 0 W/m² | - |
| 1777942681 | 27.22° C | 46% | 979 hPa | - | - | 0 W/m² | - |
| 1777942057 | 27.78° C | 46% | 979 hPa | - | - | 0 W/m² | - |
| 1777941432 | 28.33° C | 48% | 979 hPa | - | - | 0 W/m² | - |
| 1777940808 | 29.44° C | 55% | 979 hPa | - | - | 0 W/m² | - |
| 1777940184 | 30° C | 59% | 978 hPa | - | - | 0 W/m² | - |
* Rain since midnight (hover to see other rain measurements)
** Current wind speed in m/s (hover to see current wind gust speed)